| time (UTC) | temp C | wind direction | speed KPH | gust KPH | rain 1hr cm | rain 24hr cm | rain mn cm | humidity % | barometer mb |
| 20260505024510 | 9 | 355 | 16.1 | 27.4 | 0.00 | 0.00 | 0.00 | 43 | 1003.9 |
| 20260505023003 | 10 | 52 | 16.1 | 29.0 | 0.00 | 0.00 | 0.00 | 41 | 1003.4 |
| 20260505021558 | 10 | 5 | 14.5 | 25.7 | 0.00 | 0.00 | 0.00 | 41 | 1003.0 |
| 20260505020103 | 10 | 325 | 4.8 | 22.5 | 0.00 | 0.00 | 0.00 | 40 | 1002.6 |
| 20260505014554 | 11 | 338 | 6.4 | 14.5 | 0.00 | 0.00 | 0.00 | 40 | 1002.3 |
| 20260505013100 | 11 | 322 | 11.3 | 20.9 | 0.00 | 0.00 | 0.00 | 39 | 1002.1 |
| 20260505011548 | 11 | 344 | 14.5 | 27.4 | 0.00 | 0.00 | 0.00 | 38 | 1001.7 |
| 20260505010048 | 12 | 332 | 11.3 | 22.5 | 0.00 | 0.00 | 0.00 | 39 | 1001.5 |
| 20260505004538 | 12 | 327 | 9.7 | 25.7 | 0.00 | 0.00 | 0.00 | 39 | 1001.3 |
| 20260505003035 | 12 | 330 | 17.7 | 35.4 | 0.00 | 0.00 | 0.00 | 40 | 1001.1 |
| 20260505001533 | 13 | 305 | 19.3 | 33.8 | 0.00 | 0.00 | 0.00 | 38 | 1000.7 |
| 20260505000026 | 13 | 293 | 6.4 | 30.6 | 0.00 | 0.00 | 0.00 | 38 | 1000.5 |
| 20260504234524 | 13 | 355 | 14.5 | 38.6 | 0.00 | 0.00 | 0.00 | 38 | 1000.2 |
| 20260504233020 | 14 | 311 | 12.9 | 33.8 | 0.00 | 0.00 | 0.00 | 36 | 1000.1 |
| 20260504231516 | 15 | 59 | 17.7 | 38.6 | 0.00 | 0.00 | 0.00 | 34 | 999.7 |
| 20260504230053 | 15 | 355 | 14.5 | 32.2 | 0.00 | 0.00 | 0.00 | 36 | 999.5 |
| 20260504224541 | 16 | 360 | 19.3 | 35.4 | 0.00 | 0.00 | 0.00 | 33 | 999.2 |
| 20260504223008 | 16 | 342 | 12.9 | 29.0 | 0.00 | 0.00 | 0.00 | 32 | 999.0 |
| 20260504221505 | 17 | 342 | 12.9 | 30.6 | 0.00 | 0.00 | 0.00 | 31 | 998.6 |
| 20260504220035 | 17 | 284 | 14.5 | 32.2 | 0.00 | 0.00 | 0.00 | 32 | 998.3 |
| 20260504214533 | 17 | 284 | 17.7 | 27.4 | 0.00 | 0.00 | 0.00 | 32 | 998.2 |
| 20260504213030 | 17 | 302 | 16.1 | 27.4 | 0.00 | 0.00 | 0.00 | 31 | 998.1 |
| 20260504211529 | 17 | 329 | 14.5 | 27.4 | 0.00 | 0.00 | 0.00 | 33 | 997.9 |
| 20260504210034 | 17 | 333 | 12.9 | 24.1 | 0.00 | 0.00 | 0.00 | 34 | 998.0 |
| 20260504204527 | 17 | 315 | 11.3 | 27.4 | 0.00 | 0.00 | 0.00 | 29 | 997.9 |
| 20260504203034 | 16 | 329 | 12.9 | 33.8 | 0.00 | 0.00 | 0.00 | 28 | 997.8 |
| 20260504201522 | 17 | 334 | 17.7 | 30.6 | 0.00 | 0.00 | 0.00 | 27 | 997.9 |
| 20260504200019 | 17 | 324 | 16.1 | 35.4 | 0.00 | 0.00 | 0.00 | 26 | 997.7 |
| 20260504194517 | 18 | 245 | 11.3 | 35.4 | 0.00 | 0.00 | 0.00 | 28 | 997.5 |
| 20260504193017 | 18 | 279 | 14.5 | 33.8 | 0.00 | 0.00 | 0.00 | 26 | 997.4 |
| 20260504191521 | 20 | 292 | 14.5 | 32.2 | 0.00 | 0.00 | 0.00 | 27 | 997.0 |
| 20260504190009 | 19 | 289 | 9.7 | 37.0 | 0.00 | 0.00 | 0.00 | 26 | 996.8 |
| 20260504184507 | 18 | 342 | 12.9 | 29.0 | 0.00 | 0.00 | 0.00 | 27 | 996.6 |
| 20260504183004 | 18 | 11 | 14.5 | 33.8 | 0.00 | 0.00 | 0.00 | 29 | 996.5 |
| 20260504181504 | 18 | 36 | 12.9 | 32.2 | 0.00 | 0.00 | 0.00 | 27 | 996.5 |
| 20260504180006 | 19 | 324 | 12.9 | 24.1 | 0.00 | 0.00 | 0.00 | 27 | 996.3 |
| 20260504174502 | 18 | 260 | 11.3 | 25.7 | 0.00 | 0.00 | 0.00 | 28 | 996.0 |
| 20260504173101 | 20 | 35 | 9.7 | 20.9 | 0.00 | 0.00 | 0.00 | 30 | 996.2 |
| 20260504171556 | 18 | 248 | 6.4 | 25.7 | 0.00 | 0.00 | 0.00 | 34 | 996.2 |
| 20260504081513 | 11 | 257 | 9.7 | 19.3 | 0.00 | 0.00 | 0.00 | 51 | 997.5 |
| 20260504044503 | 11 | 190 | 0.0 | 3.2 | 0.00 | 0.00 | 0.00 | 55 | 1001.2 |
| 20260504043110 | 11 | 190 | 0.0 | 1.6 | 0.00 | 0.00 | 0.00 | 57 | 1001.3 |
| 20260504041554 | 11 | 190 | 0.0 | 1.6 | 0.00 | 0.00 | 0.00 | 57 | 1001.5 |
| 20260504040058 | 10 | 190 | 1.6 | 3.2 | 0.00 | 0.00 | 0.00 | 62 | 1001.7 |
| 20260504034549 | 11 | 190 | 0.0 | 0.0 | 0.00 | 0.00 | 0.00 | 56 | 1001.9 |
| 20260504033054 | 11 | 190 | 0.0 | 1.6 | 0.00 | 0.00 | 0.00 | 56 | 1002.1 |
| 20260504031546 | 11 | 190 | 1.6 | 3.2 | 0.00 | 0.00 | 0.00 | 57 | 1002.3 |
| 20260504030042 | 12 | 190 | 0.0 | 1.6 | 0.00 | 0.00 | 0.00 | 52 | 1002.4 |